Columbia Owens, SC

1:43 PM EST on November 22, 2019 (GMT -0500)
Columbia Owens Downtown

Weather History for KCUB - September, 2019

Change the Weather History Date:

Wednesday, September 18, 2019

  Actual Average Record
Temperature  
Mean Temperature 79 °F 75 °F  
Max Temperature 84 °F 85 °F 95 °F (2005)
Min Temperature 73 °F 66 °F 54 °F (2001)
Degree Days  
Heating Degree Days 0 0  
Month to date heating degree days 0 0  
Since 1 July heating degree days 0 0  
Cooling Degree Days 14 11  
Month to date cooling degree days 332 227  
Year to date cooling degree days 2455 2045  
Growing Degree Days 28 (Base 50)    
Moisture  
Dew Point 59 °F    
Average Humidity 54    
Maximum Humidity 73    
Minimum Humidity 34    
Precipitation  
Precipitation T in 0.14 in 0.58 in (2002)
Month to date precipitation 0.79 2.57  
Year to date precipitation 23.97 34.42  
Sea Level Pressure  
Sea Level Pressure 30.08 in    
Wind  
Wind Speed 5 mph (ENE)    
Max Wind Speed 13 mph    
Max Gust Speed 17 mph    
Visibility 10 miles    
Events      
T = Trace of Precipitation, MM = Missing Value Source: NWS Daily Summary

Daily Weather History Graph

Daily Weather History Graph

Search for Another Location

Airport or City:

Astronomy

Sep. 18, 2019 Rise Set
Actual Time 7:09 AM EDT 7:26 PM EDT
Civil Twilight 6:44 AM EDT 7:51 PM EDT
Nautical Twilight 6:14 AM EDT 8:20 PM EDT
Astronomical Twilight 5:45 AM EDT 8:50 PM EDT
Moon 10:11 PM EDT (9/18) 11:00 AM EDT (9/18)
Length of Visible Light 13h 07m
Length of Day
12h 17m
Waning Gibbous, 82% of the Moon is Illuminated
Sep 18
Waning Gibbous
Sep 21
Last Quarter
Sep 28
New
Oct 5
First Quarter
Oct 13
Full

Hourly Weather History & Observations

Time (EDT) Temp. Heat Index Dew Point Humidity Pressure Visibility Wind Dir Wind Speed Gust Speed Precip Events Conditions
12:11 AM 81.0 °F 82.7 °F 64.9 °F 58% 30.00 in 10.0 mi SSE 3.5 mph - N/A   Overcast
12:53 AM 75.9 °F - 70.0 °F 82% 30.00 in 10.0 mi Calm Calm - 0.01 in   Overcast
1:53 AM 78.1 °F - 66.9 °F 68% 30.01 in 10.0 mi Variable 5.8 mph - 0.00 in   Mostly Cloudy
2:53 AM 77.0 °F - 66.0 °F 69% 30.01 in 10.0 mi Variable 5.8 mph - N/A   Overcast
3:49 AM 75.2 °F - 64.4 °F 69% 30.03 in 10.0 mi Variable 5.8 mph - N/A   Overcast
3:53 AM 75.9 °F - 64.0 °F 67% 30.03 in 10.0 mi ENE 8.1 mph - N/A   Overcast
4:34 AM 75.0 °F - 63.0 °F 66% 30.04 in 10.0 mi Variable 6.9 mph - N/A   Overcast
4:53 AM 75.0 °F - 63.0 °F 66% 30.04 in 10.0 mi Variable 4.6 mph - N/A   Overcast
5:53 AM 73.9 °F - 64.0 °F 71% 30.05 in 10.0 mi Variable 6.9 mph - N/A   Overcast
6:53 AM 73.0 °F - 64.9 °F 76% 30.07 in 10.0 mi Calm Calm - N/A   Overcast
7:53 AM 73.0 °F - 63.0 °F 71% 30.09 in 10.0 mi Variable 5.8 mph - N/A   Overcast
8:53 AM 73.0 °F - 57.0 °F 57% 30.10 in 10.0 mi East 9.2 mph - N/A   Overcast
9:53 AM 75.0 °F - 55.0 °F 50% 30.11 in 10.0 mi East 8.1 mph - N/A   Mostly Cloudy
10:53 AM 75.9 °F - 55.0 °F 48% 30.12 in 10.0 mi Variable 4.6 mph - N/A   Mostly Cloudy
11:53 AM 77.0 °F - 52.0 °F 42% 30.11 in 10.0 mi Variable 6.9 mph 17.3 mph N/A   Scattered Clouds
12:53 PM 80.1 °F 79.9 °F 53.1 °F 39% 30.11 in 10.0 mi Variable 6.9 mph - N/A   Mostly Cloudy
1:53 PM 82.9 °F 81.8 °F 53.1 °F 36% 30.10 in 10.0 mi Variable 5.8 mph - N/A   Mostly Cloudy
2:53 PM 82.9 °F 81.9 °F 54.0 °F 37% 30.10 in 10.0 mi NNE 9.2 mph - N/A   Mostly Cloudy
3:53 PM 84.0 °F 82.6 °F 54.0 °F 35% 30.09 in 10.0 mi Variable 3.5 mph - N/A   Partly Cloudy
4:53 PM 84.0 °F 82.5 °F 53.1 °F 34% 30.09 in 10.0 mi ENE 6.9 mph - N/A   Partly Cloudy
5:53 PM 82.0 °F 81.3 °F 54.0 °F 38% 30.08 in 10.0 mi Variable 4.6 mph - N/A   Overcast
6:53 PM 81.0 °F 80.7 °F 55.0 °F 41% 30.09 in 10.0 mi ENE 3.5 mph - N/A   Partly Cloudy
7:53 PM 78.1 °F - 54.0 °F 43% 30.09 in 10.0 mi Calm Calm - N/A   Mostly Cloudy
9:53 PM 75.9 °F - 55.0 °F 48% 30.13 in 10.0 mi Calm Calm - N/A   Overcast
10:53 PM 75.9 °F - 55.0 °F 48% 30.15 in 10.0 mi Calm Calm - N/A   Overcast
11:53 PM 75.0 °F - 55.0 °F 50% 30.16 in 10.0 mi Variable 4.6 mph - N/A   Overcast